Stations météo

réclame
Mon MeteoGroup
Marseille/Marignane, France (7650): Température de l'air & dewpoint: 10.08.2018 21:00:00 - 16.08.2018 21:00:00 (CEST)Marseille/Marignane, France (7650): Température de l'air 5cm: 10.08.2018 21:00:00 - 16.08.2018 21:00:00 (CEST)Marseille/Marignane, France (7650): Température de l'air -20cm & Température de l'air -100cm: 10.08.2018 21:00:00 - 16.08.2018 21:00:00 (CEST)Marseille/Marignane, France (7650): Vitesse du vent & gusts: 10.08.2018 21:00:00 - 16.08.2018 21:00:00 (CEST)Marseille/Marignane, France (7650): Direction du vent: 10.08.2018 21:00:00 - 16.08.2018 21:00:00 (CEST)Marseille/Marignane, France (7650): reduced air pressure: 10.08.2018 21:00:00 - 16.08.2018 21:00:00 (CEST)Marseille/Marignane, France (7650): visibility: 10.08.2018 21:00:00 - 16.08.2018 21:00:00 (CEST)Marseille/Marignane, France (7650): Ensoleillement: 10.08.2018 21:00:00 - 16.08.2018 21:00:00 (CEST)Marseille/Marignane, France (7650): Quantités de précipitations: 10.08.2018 21:00:00 - 16.08.2018 21:00:00 (CEST)
Date & Time tt [°C] td [°C] tt 5cm [°C] tt -20cm [°C] tt -100cm [°C] ff [km/h] ff [knt] fx [km/h] fx [knt] dd ppp [hPa] vv [km] sd [min] rr [mm]
16.08.2018 21:00:00 25,4 16,5 24,3 30,0 23,6 8 4 17 9 SSW 1014,5 58 6 0,0
16.08.2018 20:00:00 28,1 14,3 29,8 30,2 23,6 11 6 16 9 SSW 1014,1 51 60 0,0
16.08.2018 19:00:00 29,8 12,2 33,0 30,2 23,6 11 6 28 15 SSW 1014,0 42 60 0,0
16.08.2018 18:00:00 30,4 11,4 34,0 29,9 23,7 13 7 26 14 SW 1014,3 34 60 0,0
16.08.2018 17:00:00 30,8 11,7 35,1 29,3 23,6 15 8 26 14 SW 1014,7 30 60 0,0
16.08.2018 16:00:00 31,6 10,9 36,2 28,5 23,6 19 10 28 15 SW 1015,0 34 60 0,0
16.08.2018 15:00:00 31,4 10,1 37,0 27,6 23,6 18 10 29 15 SSW 1015,4 35 60 0,0
16.08.2018 14:00:00 31,5 10,2 37,0 26,6 23,6 16 9 29 16 SSW 1015,7 41 60 0,0
16.08.2018 13:00:00 30,8 10,7 36,6 25,6 23,6 18 10 26 14 SSW 1015,9 37 60 0,0
16.08.2018 12:00:00 30,9 10,8 34,6 24,8 23,7 13 7 19 11 SW 1016,0 20 60 0,0
16.08.2018 11:00:00 29,8 14,0 31,4 24,2 23,7 6 3 11 6 WNW 1015,9 50 60 0,0
16.08.2018 10:00:00 26,5 15,8 29,8 23,9 23,7 4 2 11 6 WNW 1015,8 45 60 0,0
16.08.2018 09:00:00 26,0 13,8 25,6 24,0 23,7 4 2 12 7 NE 1015,7 20 60 0,0
16.08.2018 08:00:00 23,1 14,1 18,5 24,2 23,7 4 2 17 9 SE 1015,7 48 53 0,0
16.08.2018 07:00:00 21,4 13,8 18,1 24,6 23,7 2 1 10 6 SSE 1015,5 59 0 0,0
16.08.2018 06:00:00 20,7 14,3 18,7 25,0 23,7 8 4 11 6 SSE 1015,4 60 0 0,0
16.08.2018 05:00:00 20,7 14,6 19,1 25,3 23,8 4 2 12 6 E 1015,4 60 0 0,0
16.08.2018 04:00:00 22,8 13,8 19,6 25,8 23,8 8 5 12 6 E 1015,6 60 0 0,0
16.08.2018 03:00:00 23,3 14,3 20,7 26,2 23,7 4 2 16 9 SE 1015,7 60 0 0,0
16.08.2018 02:00:00 23,5 14,2 21,4 26,7 23,8 13 7 15 8 ESE 1016,0 60 0 0,0
16.08.2018 01:00:00 22,6 15,2 21,1 27,2 23,8 11 6 15 8 SE 1015,9 60 0 0,0
16.08.2018 00:00:00 22,9 15,0 21,3 27,7 23,8 15 8 18 10 ESE 1015,9 59 0 0,0
15.08.2018 23:00:00 24,7 13,9 21,9 28,2 23,7 9 5 12 6 SE 1015,9 60 0 0,0
15.08.2018 22:00:00 24,8 14,3 22,4 28,7 23,8 6 3 16 9 SSE 1016,0 60 0 0,0
15.08.2018 21:00:00 27,0 14,4 25,6 29,2 23,8 11 6 19 11 SSW 1015,3 60 20 0,0
15.08.2018 20:00:00 29,3 15,4 30,4 29,3 23,8 14 7 22 12 SW 1015,0 51 60 0,0
15.08.2018 19:00:00 30,7 12,6 33,1 29,2 23,8 15 8 41 22 WSW 1015,1 37 60 0,0
15.08.2018 18:00:00 31,6 12,4 35,0 28,8 23,8 16 9 22 12 WSW 1015,4 35 60 0,0
15.08.2018 17:00:00 30,8 13,6 35,6 28,2 23,8 11 6 16 9 W 1015,6 39 60 0,0
15.08.2018 16:00:00 30,9 11,8 36,1 27,3 23,8 9 5 15 8 W 1015,6 30 60 0,0
15.08.2018 15:00:00 30,2 11,7 34,9 26,3 23,8 10 5 18 10 W 1015,9 20 60 0,0
15.08.2018 14:00:00 29,2 14,2 33,3 25,4 23,8 16 8 23 12 W 1016,1 20 60 0,0
15.08.2018 13:00:00 28,2 14,4 32,2 24,5 23,8 19 10 23 12 W 1016,2 40 60 0,0
15.08.2018 12:00:00 27,2 14,6 31,1 23,7 23,8 15 8 20 11 W 1016,2 52 60 0,0
15.08.2018 11:00:00 26,1 14,9 28,6 23,2 23,8 9 5 13 7 W 1016,3 60 60 0,0
15.08.2018 10:00:00 23,9 14,0 26,8 23,0 23,8 6 3 11 6 WNW 1016,0 53 60 0,0
15.08.2018 09:00:00 22,5 14,3 24,8 23,0 23,9 7 4 27 14 NNW 1016,0 54 60 0,0
15.08.2018 08:00:00 21,4 14,3 17,1 23,2 23,8 9 5 30 16 N 1015,8 53 54 0,0
15.08.2018 07:00:00 18,7 14,4 16,1 23,6 23,9 10 5 23 12 N 1015,6 60 0 0,0
15.08.2018 06:00:00 18,4 14,7 16,7 23,9 23,8 7 4 13 7 SE 1015,4 60 0 0,0
15.08.2018 05:00:00 19,7 14,5 17,1 24,3 23,8 4 2 10 5 SE 1015,3 60 0 0,0
15.08.2018 04:00:00 21,4 13,3 18,7 24,6 23,8 4 2 22 12 E 1014,9 60 0 0,0
15.08.2018 03:00:00 22,7 13,2 21,6 24,9 23,8 14 7 34 19 NNW 1014,6 59 0 0,0
15.08.2018 02:00:00 23,5 13,4 21,9 25,3 23,9 23 12 32 17 NNW 1014,4 60 0 0,0
15.08.2018 01:00:00 23,8 13,3 22,1 25,7 23,9 12 7 43 23 N 1014,3 60 0 0,0
15.08.2018 00:00:00 24,6 13,5 23,9 26,1 23,9 29 15 54 29 N 1013,3 60 0 0,0
14.08.2018 23:00:00 25,2 13,7 24,5 26,4 23,9 35 19 58 31 NNW 1013,3 60 0 0,0
14.08.2018 22:00:00 25,9 13,7 25,3 26,8 23,9 40 21 59 32 NNW 1013,4 60 0 0,0
14.08.2018 21:00:00 26,4 13,2 25,8 27,1 23,9 36 19 66 35 NW 1013,0 60 21 0,0
14.08.2018 20:00:00 27,4 12,6 27,9 27,3 23,9 47 26 76 41 NNW 1012,4 13 60 0,0
14.08.2018 19:00:00 28,3 13,0 29,8 27,3 23,9 45 24 78 42 NW 1011,8 11 60 0,0
14.08.2018 18:00:00 29,0 12,0 31,4 27,1 23,9 44 24 71 39 NW 1011,4 13 60 0,0
14.08.2018 17:00:00 29,2 12,6 31,7 26,7 23,9 53 29 72 39 NW 1011,5 14 60 0,0
14.08.2018 16:00:00 29,5 13,3 32,4 26,1 23,9 43 23 67 36 NW 1011,6 12 60 0,0
14.08.2018 15:00:00 29,3 13,1 32,1 25,5 23,9 40 22 57 31 WNW 1012,2 14 60 0,0
14.08.2018 14:00:00 28,5 13,2 31,3 24,9 23,9 32 17 58 31 NW 1013,0 16 60 0,0
14.08.2018 13:00:00 28,0 12,4 30,1 24,4 23,9 41 22 58 31 NW 1013,5 18 60 0,0
14.08.2018 12:00:00 26,9 15,3 28,4 24,0 23,9 38 20 62 34 NW 1013,8 20 60 0,0
14.08.2018 11:00:00 25,7 16,5 26,6 23,8 23,9 41 22 51 28 WNW 1014,1 23 60 0,0
14.08.2018 10:00:00 24,7 16,1 25,2 23,8 23,9 40 22 53 29 WNW 1014,4 29 60 0,0
14.08.2018 09:00:00 23,5 16,8 23,1 23,9 23,9 29 15 42 23 NW 1014,3 34 60 0,0
14.08.2018 08:00:00 21,9 16,6 20,8 24,1 24,0 19 10 37 20 NW 1014,1 38 54 0,0
14.08.2018 07:00:00 21,2 17,0 20,8 24,4 24,0 29 16 40 22 WNW 1013,8 58 0 0,0
14.08.2018 06:00:00 21,7 17,5 20,4 24,7 23,9 22 12 32 17 NW 1013,6 60 0 0,0
14.08.2018 05:00:00 21,6 17,4 20,9 24,9 23,9 14 8 29 16 NW 1013,3 60 0 0,0
14.08.2018 04:00:00 22,2 16,9 21,5 25,3 24,0 19 11 32 17 NNW 1013,4 60 0 0,0
14.08.2018 03:00:00 22,5 19,5 21,7 25,6 23,9 22 12 33 18 NW 1013,4 51 0 0,0
14.08.2018 02:00:00 22,8 19,8 22,1 25,9 24,0 14 7 21 11 NW 1013,6 43 0 0,0
14.08.2018 01:00:00 23,6 20,1 22,9 26,2 24,0 14 8 22 12 NNW 1013,5 38 0 0,0
14.08.2018 00:00:00 24,2 21,1 23,4 26,5 24,0 14 7 18 10 W 1013,4 28 0 0,0
13.08.2018 23:00:00 24,4 20,5 23,3 26,8 24,0 7 4 15 8 WNW 1013,2 31 0 0,0
13.08.2018 22:00:00 24,2 20,7 23,6 27,2 24,0 8 5 16 8 WSW 1013,0 41 0 0,0
13.08.2018 21:00:00 24,8 20,7 24,4 27,5 24,0 10 6 14 8 WSW 1012,6 50 12 0,0
13.08.2018 20:00:00 25,1 20,8 25,2 27,7 24,0 10 5 21 11 SW 1012,5 44 0 0,0
13.08.2018 19:00:00 26,1 20,0 28,7 27,7 24,0 18 10 27 14 SSW 1012,1 28 58 0,0
13.08.2018 18:00:00 27,3 19,1 31,4 27,6 24,0 17 9 31 17 S 1012,1 25 60 0,0
13.08.2018 17:00:00 28,4 18,5 32,8 27,3 24,0 23 12 32 17 S 1012,2 27 60 0,0
13.08.2018 16:00:00 27,6 18,6 33,1 26,9 24,0 22 12 32 17 S 1012,8 29 60 0,0
13.08.2018 15:00:00 27,9 18,3 33,0 26,4 24,0 20 11 34 18 S 1013,2 34 60 0,0
13.08.2018 14:00:00 27,5 -26,1 33,5 25,8 24,0 18 10 37 20 S 1013,8 40 60 0,0
13.08.2018 13:00:00 27,3 -26,3 31,9 25,1 24,0 16 9 29 15 S 1013,9 46 57 0,0
13.08.2018 12:00:00 27,1 -21,8 28,0 24,7 24,0 9 5 26 14 W 1014,1 50 60 0,0
13.08.2018 11:00:00 24,9 -27,8 22,9 24,7 24,0 19 10 40 22 E 1013,5 48 37 0,0
13.08.2018 10:00:00 21,9 -29,7 21,1 24,9 24,0 29 16 49 26 E 1013,5 48 0 0,0
13.08.2018 09:00:00 20,6 -37,7 20,5 25,3 24,0 24 13 36 19 ENE 1013,4 45 0 0,0
13.08.2018 08:00:00 20,0 -38,0 18,9 25,7 24,1 19 10 35 19 E 1013,0 54 0 0,0
13.08.2018 07:00:00 18,2 -39,1 17,8 26,3 24,1 28 15 45 24 E 1013,1 35 0 4,0
13.08.2018 06:00:00 17,6 -32,5 16,8 26,7 24,1 18 10 99 53 SSE 1014,7 0,4 0 43,2
13.08.2018 05:00:00 24,7 20,0 23,6 26,9 24,1 10 5 22 12 SE 1012,1 26 0 0,0
13.08.2018 04:00:00 24,3 20,2 23,8 27,2 24,1 18 10 25 14 E 1012,4 20 0 0,0
13.08.2018 03:00:00 24,7 20,8 24,3 27,5 24,1 13 7 21 11 ENE 1013,8 20 0 0,0
13.08.2018 02:00:00 25,5 21,4 24,1 27,8 24,1 10 6 16 9 E 1014,3 27 0 0,0
13.08.2018 01:00:00 25,4 21,9 24,7 28,1 24,1 8 4 14 8 SE 1014,6 26 0 0,0
13.08.2018 00:00:00 25,2 22,1 24,8 28,5 24,1 11 6 16 9 ESE 1014,8 25 0 0,0
12.08.2018 23:00:00 25,8 22,1 25,3 28,9 24,1 10 5 18 10 SSE 1015,7 28 0 0,0
12.08.2018 22:00:00 26,1 22,2 25,8 29,3 24,1 13 7 26 14 S 1016,1 27 0 0,0
12.08.2018 21:00:00 26,2 22,3 26,0 29,7 24,2 16 9 25 14 S 1015,4 20 0 0,0
12.08.2018 20:00:00 26,6 21,6 27,5 29,8 24,1 16 9 26 14 S 1014,7 21 52 0,0
12.08.2018 19:00:00 28,3 20,8 32,6 29,7 24,1 15 8 30 16 S 1014,7 20 60 0,0
12.08.2018 18:00:00 29,2 20,9 33,8 29,4 24,2 23 12 34 18 SSW 1015,3 21 60 0,0
12.08.2018 17:00:00 30,1 18,5 35,3 28,8 24,2 21 11 31 17 S 1015,7 23 60 0,0
12.08.2018 16:00:00 29,9 17,7 35,5 28,0 24,2 22 12 36 20 SSW 1016,0 25 60 0,0
12.08.2018 15:00:00 30,0 16,4 36,1 27,1 24,2 24 13 37 20 S 1016,8 30 60 0,0
12.08.2018 14:00:00 31,7 11,5 37,3 26,0 24,2 21 12 32 18 S 1016,9 38 60 0,0
12.08.2018 13:00:00 31,8 10,5 36,1 25,0 24,2 22 12 31 17 SSW 1017,1 47 60 0,0
12.08.2018 12:00:00 31,1 12,5 33,1 24,1 24,2 9 5 17 9 W 1017,3 49 60 0,0
12.08.2018 11:00:00 28,4 14,6 31,7 23,4 24,2 7 4 11 6 W 1017,4 44 60 0,0
12.08.2018 10:00:00 26,6 14,0 29,5 23,1 24,2 4 2 20 11 N 1017,4 30 60 0,0
12.08.2018 09:00:00 24,9 11,8 24,5 23,1 24,2 4 2 15 8 NE 1017,4 41 60 0,0
12.08.2018 08:00:00 21,7 12,5 17,0 23,4 24,2 10 5 15 8 ENE 1017,3 59 57 0,0
12.08.2018 07:00:00 18,6 12,3 15,5 23,8 24,2 8 4 12 7 SE 1017,3 59 0 0,0
12.08.2018 06:00:00 17,6 12,3 15,1 24,2 24,3 9 5 11 6 SE 1017,2 60 0 0,0
12.08.2018 05:00:00 18,8 12,5 15,7 24,6 24,3 6 4 16 8 E 1017,3 60 0 0,0
12.08.2018 04:00:00 18,9 13,5 17,2 25,0 24,2 6 3 15 8 E 1017,5 60 0 0,0
12.08.2018 03:00:00 22,5 12,7 20,6 25,4 24,3 11 6 16 8 NNW 1017,6 60 0 0,0
12.08.2018 02:00:00 22,6 13,9 21,3 25,8 24,3 10 6 21 11 NW 1018,0 60 0 0,0
12.08.2018 01:00:00 24,0 13,2 22,3 26,2 24,3 17 9 27 14 WNW 1018,1 60 0 0,0
12.08.2018 00:00:00 23,9 13,4 21,3 26,7 24,3 12 6 18 10 WNW 1018,3 60 0 0,0
11.08.2018 23:00:00 25,0 12,6 23,3 27,2 24,3 10 5 17 9 NW 1018,1 60 0 0,0
11.08.2018 22:00:00 25,9 10,9 24,7 27,7 24,3 14 7 24 13 NW 1017,8 60 0 0,0
11.08.2018 21:00:00 27,1 11,2 26,3 28,0 24,3 18 10 36 19 WNW 1017,3 60 26 0,0
11.08.2018 20:00:00 29,6 10,2 30,3 28,2 24,3 20 11 41 22 NW 1017,1 42 60 0,0
11.08.2018 19:00:00 29,4 11,0 29,5 28,2 24,3 13 7 51 28 NNW 1017,4 60 35 0,0
11.08.2018 18:00:00 30,3 9,2 30,6 27,9 24,3 25 13 41 22 NNW 1017,8 26 51 0,0
11.08.2018 17:00:00 31,1 11,5 34,7 27,3 24,3 28 15 42 23 WNW 1018,2 18 60 0,0
11.08.2018 16:00:00 30,6 11,0 34,6 26,6 24,4 29 15 36 20 WNW 1018,8 19 60 0,0
11.08.2018 15:00:00 30,7 11,1 34,0 25,7 24,3 27 15 38 21 WNW 1019,5 21 60 0,0
11.08.2018 14:00:00 29,8 10,4 32,4 24,9 24,4 30 16 41 22 WNW 1019,7 23 60 0,0
11.08.2018 13:00:00 28,6 11,2 31,6 24,0 24,4 27 15 38 21 W 1020,2 30 60 0,0
11.08.2018 12:00:00 27,2 11,2 30,3 23,3 24,4 22 12 32 17 WNW 1020,7 39 60 0,0
11.08.2018 11:00:00 25,0 10,8 26,8 23,0 24,4 14 8 27 15 NW 1021,0 43 60 0,0
11.08.2018 10:00:00 23,6 10,6 24,9 22,9 24,4 17 9 36 19 NNW 1021,1 43 60 0,0
11.08.2018 09:00:00 22,1 11,2 22,5 23,0 24,4 20 11 35 19 NNW 1021,3 48 60 0,0
11.08.2018 08:00:00 20,8 11,4 19,6 23,2 24,4 19 10 31 17 NNW 1021,2 50 58 0,0
11.08.2018 07:00:00 20,4 12,1 18,4 23,6 24,4 12 7 23 13 NNW 1021,1 60 0 0,0
11.08.2018 06:00:00 20,8 12,5 18,5 23,9 24,4 16 9 21 11 NW 1020,9 60 0 0,0
11.08.2018 05:00:00 20,8 12,7 17,5 24,3 24,4 12 6 20 11 NW 1021,2 60 0 0,0
11.08.2018 04:00:00 18,9 13,5 17,3 24,7 24,4 4 2 11 6 SE 1021,4 60 0 0,0
11.08.2018 03:00:00 20,7 14,8 18,1 25,0 24,4 2 1 12 7 WSW 1021,6 60 0 0,0
11.08.2018 02:00:00 23,3 11,4 20,1 25,4 24,5 10 5 14 8 N 1021,8 60 0 0,0
11.08.2018 01:00:00 24,0 11,7 21,8 25,8 24,4 10 5 20 11 NNW 1022,1 60 0 0,0
11.08.2018 00:00:00 24,5 16,5 23,3 26,1 24,5 13 7 26 14 NW 1021,9 60 0 0,0
10.08.2018 23:00:00 25,2 17,7 23,5 26,6 24,4 20 11 25 14 WNW 1021,7 60 0 0,0
10.08.2018 22:00:00 25,7 13,2 24,4 27,0 24,5 14 8 22 12 WNW 1021,5 60 0 0,0
10.08.2018 21:00:00 27,9 11,9 26,7 27,3 24,5 16 8 31 17 NNW 1020,8 55 27 0,0

tt = Température de l'air
td = dewpoint
tt 5cm = Température de l'air 5cm
tt -20cm = Température de l'air -20cm
tt -100cm = Température de l'air -100cm
ff = Vitesse du vent
fx = gusts
dd = Direction du vent
ppp = reduced air pressure
vv = visibility
sd = Ensoleillement
rr = Quantités de précipitations

stations d'obs. à proximité